Probability
0 0 0 0 0 0 0 0 0 0 0 0 0 0 0 0 0 0 0 0 0 0 0 0 0 0 0 0 0 0 0 0 0 0 0 0 0 0 0 0 0 0 0 0
0 0 0 0 0 0 0 0 0 0 0 0 0 0 0 0 0 0 0 0 0 0 0 0 0 0 0 0 0 0 0 0 0 0 0 0 0 0 0 0 0 0 0 0
0 0 0 0 0 0 0 0 0 0 0 0 0 0 0 0 0 0 0 0 0 0 0 0 0 0 0 0 0 0 0 0 0 0 0 0 0 0 0 0 0 0 0 0
0 0 0 0 0 0 0 0 0 0 0 0 0 0 0 0 0 0 0 0 0 0 0 0 0 0 0 0 0 0 0 0 0 0 0 0 0 0 0 0 0 0 0 0
0 0 0 0 0 0 0 0 0 0 0 0 0 0 0 0 0 0 0 0 0 0 0 0 0 0 0 0 0 0 0 0 0 0 0 0 0 0 0 0 0 0 0 0
0 0 0 0 0 0 0 0 0 0 0 0 0 0 0 0 0 0 0 0 0 0 0 0 0 0 0 0 0 0 0 0 0 0 0 0 0 0 0 0 0 0 0 0
0 0 0 0 0 0 0 0 0 0 0 0 0 0 0 0 0 0 0 0 0 0 0 0 0 0 0 0 0 0 0 0 0 0 0 0 0 0 0 0 0 0 0 0
0 0 0 0 0 0 0 0 0 0 0 0 0 0 0 0 0 0 0 0 0 0 0 0 0 0 0 0 0 0 0 0 0 0 0 0 0 0 0 0 0 0 0 0
0 0 0 0 0 0 0 0 0 0 0 0 0 0 0 0 0 0 0 0 0 0 0 0 0 0 0 0 0 0 0 0 0 0 0 0 0 0 0 0 0 0 0 0
0 0 0 0 0 0 0 0 0 0 0 0 0 0 0 0 0 0 0 0 0 0 0 0 0 0 0 0 0 0 0 0 0 0 0 0 0 0 0 0 0 0 0 0
0 0 0 0 0 0 0 0 0 0 0 0 0 0 0 0 0 0 0 0 0 0 0 0 0 0 0 0 0 0 0 0 0 0 0 0 0 0 0 0 0 0 0 0
0 0 0 0 0 0 0 0 0 0 0 0 0 0 0 0 0 0 0 0 0 0 0 0 0 0 0 0 0 0 0 0 0 0 0 0 0 0 0 0 0 0 0 0
0 0 0 0 0 0 0 0 0 0 0 0 0 0 0 0 0 0 0 0 0 0 0 0 0 0 0 0 0 0 0 0 0 0 0 0 0 0 0 0 0 0 0 0
0 0 0 0 0 0 0 0 0 0 0 0 0 0 0 0 0 0 0 0 0 0 0 0 0 0 0 0 0 0 0 0 0 0 0 0 0 0 0 0 0 0 0 0
0 0 0 0 0 0 0 0 0 0 0 0 0 0 0 0 0 0 0 0 0 0 0 0 0 0 0 0 0 0 0 0 0 0 0 0 0 0 0 0 0 0 0 0
0 0 0 0 0 0 0 0 0 0 0 0 0 0 0 0 0 0 0 0 0 0 0 0 0 0 0 0 0 0 0 0 0 0 0 0 0 0 0 0 0 0 0 0
0 0 0 0 0 0 0 0 0 0 0 0 0 0 0 0 0 0 0 0 0 0 0 0 0 0 0 0 0 0 0 0 0 0 0 0 0 0 0 0 0 0 0 0
0 0 0 0 0 0 0 0 0 0 0 0 0 0 0 0 0 0 0 0 0 0 0 0 0 0 0 0 0 0 0 0 0 0 0 0 0 0 0 0 0 0 0 0
0 0 0 0 0 0 0 0 0 0 0 0 0 0 0 0 0 0 0 0 0 0 0 0 0 0 0 0 0 0 0 0 0 0 0 0 0 0 0 0 0 0 0 0
0 0 0 0 0 0 0 0 0 0 0 0 0 0 0 0 0 0 0 0 0 0 0 0 0 0 0 0 0 0 0 0 0 0 0 0 0 0 0 0 0 0 0 0
0 0 0 0 0 0 0 0 0 0 0 0 0 0 0 0 0 0 0 0 0 0 0 0 0 0 0 0 0 0 0 0 0 0 0 0 0 0 0 0 0 0 0 0
0 0 0 0 0 0 0 0 0 0 0 0 0 0 0 0 0 0 0 0 0 0 0 0 0 0 0 0 0 0 0 0 0 0 0 0 0 0 0 0 0 0 0 0
0 0 0 0 0 0 0 0 0 0 0 0 0 0 0 0 0 0 0 0 0 0 0 0 0 0 0 0 0 0 0 0 0 0 0 0 0 0 0 0 0 0 0 0
0 0 0 0 0 0 0 0 0 0 0 0 0 0 0 0 0 0 0 0 0 0 0 0 0 0 0 0 0 0 0 0 0 0 0 0 0 0 0 0 0 0 0 0
0 0 0 0 0 0 0 0 0 0 0 0 0 0 0 0 0 0 0 0 0 0 0 0 0 0 0 0 0 0 0 0 0 0 0 0 0 0 0 0 0 0 0 0
0 0 0 0 0 0 0 0 0 0 0 0 0 0 0 0 0 0 0 0 0 0 0 0 0 0 0 0 0 0 0 0 0 0 0 0 0 0 0 0 0 0 0 0
0 0 0 0 0 0 0 0 0 0 0 0 0 0 0 0 0 0 0 0 0 0 0 0 0 0 0 0 0 0 0 0 0 0 0 0 0 0 0 0 0 0 0 0
Wind_Speed
5 7 16 17 19 20 22 20 15 13 15 13 8 7 8 11 12 13 13 14 15 14 13 12 10 9 7 6 5 4 2 1 2 4 5 6 6 7 8 8 9 9 10 11
4 5 11 14 20 23 24 24 22 17 15 7 5 7 8 10 12 12 13 14 14 15 14 13 11 9 7 6 5 3 2 1 3 4 5 6 7 8 8 9 9 10 11 12
5 6 7 11 19 23 22 23 22 23 20 7 9 11 10 9 9 9 10 12 14 14 13 12 10 9 8 6 5 3 1 1 3 5 6 7 8 8 9 9 10 12 13 14
5 7 9 5 2 16 21 22 19 14 5 13 11 10 7 6 7 6 7 9 11 12 12 11 9 8 7 5 4 2 0 2 4 5 7 8 9 9 10 10 11 12 13 14
4 6 7 4 5 8 13 14 14 14 9 11 14 10 6 4 3 3 4 6 8 11 12 11 10 8 7 5 3 1 1 3 4 6 8 9 10 10 11 11 12 13 13 15
4 5 6 1 5 6 6 7 9 12 14 15 15 10 7 5 5 6 6 7 9 11 12 11 9 7 6 4 2 1 3 4 6 7 8 9 10 11 11 12 13 13 13 14
8 6 7 3 6 8 8 1 11 12 14 13 7 5 9 8 7 7 8 10 11 11 10 9 8 6 5 3 1 2 4 5 6 7 8 10 11 11 12 12 13 13 14 12
7 8 7 7 9 8 2 7 12 13 11 10 10 9 8 8 8 8 9 10 10 9 8 7 7 5 4 2 1 3 5 6 7 8 8 8 10 11 12 12 13 13 13 12
7 4 3 1 2 2 7 11 10 9 10 11 9 7 7 6 7 8 9 9 8 9 8 7 5 4 3 1 2 4 6 7 8 9 9 9 10 11 11 11 10 11 11 12
3 2 1 2 4 6 9 10 11 11 10 8 7 7 6 5 6 7 8 8 7 8 7 6 5 3 2 2 3 5 7 8 8 9 9 9 8 8 9 10 10 11 12 13
4 3 5 4 6 9 10 13 12 10 7 7 8 6 5 4 5 6 7 7 7 7 6 6 5 4 2 2 3 6 8 8 8 8 9 9 9 8 10 10 11 14 13 13
6 11 8 9 10 10 12 10 10 9 7 6 5 4 4 3 4 6 7 7 7 6 6 6 5 3 2 2 4 6 7 8 7 7 8 9 10 10 11 13 17 19 20 19
4 6 6 11 11 9 10 9 8 8 7 6 5 4 4 3 4 6 7 8 8 7 6 5 3 2 3 4 5 7 8 8 7 8 8 9 9 10 12 12 14 17 18 20
7 8 8 8 8 9 10 10 9 9 7 6 5 4 4 4 5 6 7 7 7 6 5 4 3 4 4 4 6 7 7 8 8 8 8 9 9 10 11 12 12 11 13 18
4 3 9 11 12 11 9 8 8 6 5 5 4 4 4 5 5 6 6 6 6 5 4 3 4 4 4 4 6 7 7 6 7 8 8 9 10 10 11 12 12 12 12 13
9 10 12 13 11 9 7 6 6 6 5 5 5 5 5 4 4 5 6 6 5 5 5 5 5 4 4 5 6 6 7 9 10 9 9 9 9 10 11 11 12 12 12 13
14 11 9 9 9 8 6 6 5 5 5 6 5 5 5 5 5 5 6 5 5 4 4 4 4 4 4 5 6 6 7 8 11 9 8 9 10 11 11 11 11 12 12 14
11 13 13 13 11 9 7 6 5 5 5 5 5 6 6 7 7 7 7 6 5 5 4 4 4 4 5 6 6 6 7 7 7 8 9 9 11 11 11 11 12 13 12 13
11 12 11 10 9 8 7 6 5 4 4 4 5 6 6 6 5 5 6 6 5 4 2 2 4 6 6 7 8 7 7 8 9 9 10 13 12 10 10 11 11 12 12 12
11 12 11 10 7 6 5 4 4 3 3 4 4 5 5 5 5 5 5 4 3 2 3 4 5 5 6 7 9 7 8 9 10 10 10 10 10 10 10 11 11 12 12 12
12 11 10 9 7 5 4 4 3 2 2 3 4 4 4 4 4 4 3 2 1 1 3 5 5 6 6 8 11 8 8 9 10 10 10 10 10 10 10 11 11 11 11 11
9 9 8 7 6 5 3 3 2 2 3 3 3 3 4 4 4 3 2 2 1 3 4 4 5 8 11 13 8 8 9 10 9 9 9 9 9 10 10 11 11 11 11 11
7 6 7 6 5 5 4 3 3 3 3 4 4 4 4 3 2 1 0 1 2 6 6 5 8 13 16 10 7 8 9 9 9 9 9 9 9 10 10 12 11 11 11 11
7 7 6 6 6 5 4 3 3 3 4 4 4 4 4 3 2 1 1 3 6 8 6 8 12 14 14 7 7 7 8 8 8 9 10 10 9 10 10 11 11 10 10 12
7 6 6 6 5 4 5 5 6 6 6 5 6 6 4 3 2 1 2 4 6 8 6 8 12 13 8 6 7 8 8 9 9 10 10 10 10 10 10 10 10 10 10 10
5 5 4 4 3 4 4 4 4 4 4 5 4 3 3 2 2 2 2 4 6 8 6 6 7 8 7 7 8 9 9 10 10 10 10 11 11 11 10 10 12 10 10 10
7 6 5 5 4 4 4 4 5 5 4 4 4 2 2 2 2 3 4 4 4 5 5 6 6 7 7 8 9 10 9 9 10 10 10 10 10 10 10 11 10 9 9 10
Wind_Direction
186 165 180 194 196 201 212 222 232 230 233 238 213 183 168 169 170 173 175 180 182 180 176 171 166 162 155 147 143 141 136 91 29 6 359 348 340 330 321 315 314 314 314 316
158 172 195 204 203 204 213 221 233 244 244 242 168 161 163 167 170 178 183 186 186 184 179 174 168 161 157 153 149 156 150 49 7 352 346 335 327 318 311 310 313 314 315 316
161 147 168 224 214 210 215 223 227 237 243 171 172 178 174 167 169 177 183 186 187 185 179 171 164 159 159 152 151 156 132 7 351 342 330 322 314 309 312 315 316 314 314 315
130 154 217 217 212 215 221 227 226 238 246 182 172 141 124 130 148 155 173 182 181 175 167 159 151 151 147 148 153 156 135 343 339 326 317 313 311 314 319 318 314 311 311 311
179 210 248 234 178 186 205 229 223 221 177 144 131 125 116 90 87 104 145 163 162 158 153 148 148 150 154 157 160 186 313 327 324 316 312 312 316 321 319 315 310 309 309 310
199 216 240 203 141 167 172 230 184 182 160 151 158 169 144 116 100 97 107 124 134 138 141 142 145 153 163 165 189 271 317 316 311 308 309 313 316 314 312 310 306 308 307 309
217 237 267 119 146 166 195 251 144 155 148 150 153 105 108 115 105 109 117 126 134 138 139 140 145 156 165 178 242 312 307 303 304 309 312 311 309 310 308 306 305 307 310 312
198 222 239 135 157 189 105 118 133 133 130 117 107 105 112 116 121 127 129 135 140 138 134 137 147 156 171 215 290 302 300 302 307 310 310 304 305 306 307 308 310 314 315 315
197 210 55 140 179 97 142 135 128 121 118 121 121 124 125 128 136 142 145 146 146 142 138 141 148 163 207 241 298 301 303 306 307 306 303 301 301 305 309 313 314 315 314 313
170 180 119 122 118 117 123 115 114 117 120 123 126 134 137 140 151 157 158 156 151 150 151 155 162 181 230 273 295 300 302 303 302 302 303 305 304 304 311 314 313 312 313 315
158 144 130 141 140 125 111 110 109 104 101 114 126 134 148 158 170 170 165 162 160 164 166 167 172 193 221 273 295 295 296 296 299 301 303 305 305 307 308 303 304 308 310 312
190 178 168 162 149 137 126 123 124 119 105 85 94 118 131 150 164 168 166 162 162 165 167 165 173 194 240 279 281 286 291 299 303 304 304 307 310 308 298 295 300 301 301 303
114 130 119 129 133 129 121 115 108 105 109 109 95 98 118 132 150 159 160 163 166 168 164 159 168 219 254 264 269 275 285 296 300 301 305 309 309 309 310 309 304 302 302 304
129 123 128 139 133 124 118 113 103 97 97 106 112 118 131 139 151 160 162 162 159 155 153 159 200 242 256 261 267 278 287 291 295 300 304 305 305 306 307 310 312 311 309 308
126 112 131 122 115 111 109 111 110 115 124 132 142 160 172 175 171 161 150 146 145 153 168 196 233 253 259 265 275 285 291 297 304 304 303 302 303 303 303 305 306 309 311 313
110 104 118 122 122 122 120 127 136 149 161 167 175 185 188 183 161 147 149 153 166 191 201 218 245 267 276 278 286 289 291 299 306 305 302 302 302 302 304 305 307 309 312 316
132 136 134 132 137 143 147 151 153 158 170 181 186 183 175 162 158 165 170 180 199 211 218 239 261 279 282 287 294 296 300 302 304 300 298 299 300 302 303 305 308 309 309 313
150 149 151 148 148 146 148 156 164 170 179 181 176 178 182 186 190 186 179 180 197 220 239 247 266 282 288 298 303 300 300 302 302 300 299 299 301 302 305 307 307 308 309 313
129 129 128 128 131 135 141 152 159 159 161 168 179 192 199 202 195 174 167 183 207 237 237 244 285 293 302 308 311 300 298 298 298 298 298 300 302 302 304 305 308 309 309 311
119 120 120 120 120 125 131 132 134 139 152 173 183 187 190 185 173 166 175 200 235 285 314 307 303 306 311 311 308 294 294 297 300 300 300 301 303 305 307 307 307 308 309 310
128 129 130 131 126 117 114 118 131 146 154 175 187 188 178 163 162 165 182 222 209 283 294 301 306 312 311 305 300 297 301 301 300 300 301 302 304 305 307 307 307 306 306 309
135 136 134 129 123 112 95 99 129 150 155 164 165 155 151 153 160 174 215 274 336 323 310 303 307 310 310 309 304 304 302 300 300 300 300 302 304 305 304 304 303 304 307 309
128 125 126 127 125 118 109 111 136 150 153 153 154 155 155 147 153 176 220 45 330 317 310 306 311 312 315 314 306 303 300 299 298 299 301 302 300 298 298 301 303 305 307 307
122 121 118 118 124 133 131 115 109 108 110 109 110 117 121 125 123 90 17 338 327 317 308 307 313 316 320 314 305 300 298 298 299 300 298 295 295 297 299 301 301 303 304 306
116 117 124 137 142 136 125 120 110 106 103 97 92 84 74 62 60 20 334 321 320 318 308 310 315 319 317 303 300 297 296 294 294 296 298 301 301 299 297 298 301 303 303 302
122 124 121 114 114 122 129 130 123 122 120 115 104 88 71 50 19 342 324 317 314 316 315 308 309 311 305 300 298 297 296 298 300 301 299 299 297 297 297 298 301 299 299 299
116 116 114 103 91 102 112 114 114 113 113 118 114 90 45 13 352 338 327 320 317 313 309 307 306 303 300 299 298 298 299 302 302 300 299 297 296 296 296 297 296 295 295 296